Year,Month,Day,Hour,Minute,Value (Times are PST for barometer in hPa)
2016,08,04,00,00,1018.50
2016,08,04,00,01,1018.50
2016,08,04,00,02,1018.50
2016,08,04,00,03,1018.50
2016,08,04,00,04,1018.50
2016,08,04,00,05,1018.50
2016,08,04,00,06,1018.50
2016,08,04,00,07,1018.50
2016,08,04,00,08,1018.50
2016,08,04,00,09,1018.50
2016,08,04,00,10,1018.50
2016,08,04,00,11,1018.50
2016,08,04,00,12,1018.40
2016,08,04,00,13,1018.40
2016,08,04,00,14,1018.40
2016,08,04,00,21,1018.40
2016,08,04,00,22,1018.40
2016,08,04,00,23,1018.40
2016,08,04,00,24,1018.40
2016,08,04,00,26,1018.40
2016,08,04,00,27,1018.40
2016,08,04,00,28,1018.40
2016,08,04,00,29,1018.40
2016,08,04,01,21,1018.30
2016,08,04,01,22,1018.30
2016,08,04,01,23,1018.30
2016,08,04,01,24,1018.30
2016,08,04,01,26,1018.20
2016,08,04,01,27,1018.20
2016,08,04,01,28,1018.20
2016,08,04,01,29,1018.20
2016,08,04,03,21,1017.80
2016,08,04,03,22,1017.80
2016,08,04,03,23,1017.80
2016,08,04,03,24,1017.70
2016,08,04,03,26,1017.70
2016,08,04,03,27,1017.70
2016,08,04,03,28,1017.70
2016,08,04,03,29,1017.80
2016,08,04,03,31,1017.70
2016,08,04,03,32,1017.80
2016,08,04,03,33,1017.80
2016,08,04,03,34,1017.70
2016,08,04,03,36,1017.70
2016,08,04,03,37,1017.70
2016,08,04,03,38,1017.70
2016,08,04,03,39,1017.70
2016,08,04,03,41,1017.70
2016,08,04,03,42,1017.70
2016,08,04,03,43,1017.70
2016,08,04,03,44,1017.70
2016,08,04,03,46,1017.70
2016,08,04,03,47,1017.70
2016,08,04,03,48,1017.70
2016,08,04,03,49,1017.70
2016,08,04,03,51,1017.70
2016,08,04,03,52,1017.50
2016,08,04,03,53,1017.50
2016,08,04,03,54,1017.50
2016,08,04,03,56,1017.40
2016,08,04,03,57,1017.40
2016,08,04,03,58,1017.40
2016,08,04,03,59,1017.40
2016,08,04,04,01,1017.40
2016,08,04,04,02,1017.40
2016,08,04,04,03,1017.40
2016,08,04,04,04,1017.40
2016,08,04,04,06,1017.40
2016,08,04,04,07,1017.40
2016,08,04,04,08,1017.40
2016,08,04,04,09,1017.40
2016,08,04,04,11,1017.40
2016,08,04,04,12,1017.40
2016,08,04,04,13,1017.40
2016,08,04,04,14,1017.40
2016,08,04,04,15,1017.50
2016,08,04,04,16,1017.50
2016,08,04,04,17,1017.50
2016,08,04,04,18,1017.40
2016,08,04,04,19,1017.40
2016,08,04,04,20,1017.40
2016,08,04,04,21,1017.40
2016,08,04,04,22,1017.40
2016,08,04,04,23,1017.40
2016,08,04,04,24,1017.40
2016,08,04,04,25,1017.40
2016,08,04,04,26,1017.40
2016,08,04,04,27,1017.40
2016,08,04,04,28,1017.40
2016,08,04,04,29,1017.40
2016,08,04,04,30,1017.40
2016,08,04,04,31,1017.40
2016,08,04,04,32,1017.40
2016,08,04,04,33,1017.40
2016,08,04,04,34,1017.40
2016,08,04,04,35,1017.40
2016,08,04,04,36,1017.40
2016,08,04,04,37,1017.40
2016,08,04,04,38,1017.40
2016,08,04,04,39,1017.40
2016,08,04,04,40,1017.40
2016,08,04,04,41,1017.40
2016,08,04,04,42,1017.40
2016,08,04,04,43,1017.40
2016,08,04,04,44,1017.40
2016,08,04,04,45,1017.40
2016,08,04,04,46,1017.40
2016,08,04,04,47,1017.40
2016,08,04,04,48,1017.40
2016,08,04,04,49,1017.40
2016,08,04,04,50,1017.40
2016,08,04,04,51,1017.40
2016,08,04,04,52,1017.40
2016,08,04,04,53,1017.40
2016,08,04,04,54,1017.40
2016,08,04,04,55,1017.40
2016,08,04,04,56,1017.40
2016,08,04,04,57,1017.40
2016,08,04,04,58,1017.40
2016,08,04,04,59,1017.40
2016,08,04,05,00,1017.40
2016,08,04,05,01,1017.40
2016,08,04,05,02,1017.40
2016,08,04,05,03,1017.40
2016,08,04,05,04,1017.40
2016,08,04,05,05,1017.40
2016,08,04,05,06,1017.40
2016,08,04,05,07,1017.40
2016,08,04,05,08,1017.40
2016,08,04,05,09,1017.30
2016,08,04,05,10,1017.30
2016,08,04,05,21,1017.40
2016,08,04,05,22,1017.40
2016,08,04,05,23,1017.40
2016,08,04,05,24,1017.40
2016,08,04,05,26,1017.40
2016,08,04,05,27,1017.40
2016,08,04,05,28,1017.40
2016,08,04,05,29,1017.40
2016,08,04,05,31,1017.40
2016,08,04,05,32,1017.40
2016,08,04,05,33,1017.40
2016,08,04,05,34,1017.40
2016,08,04,05,36,1017.40
2016,08,04,05,37,1017.40
2016,08,04,05,38,1017.40
2016,08,04,05,39,1017.40
2016,08,04,07,21,1017.30
2016,08,04,07,22,1017.30
2016,08,04,07,23,1017.30
2016,08,04,07,24,1017.30
2016,08,04,07,26,1017.30
2016,08,04,07,27,1017.30
2016,08,04,07,28,1017.30
2016,08,04,07,29,1017.30
2016,08,04,07,31,1017.30
2016,08,04,07,32,1017.30
2016,08,04,07,33,1017.30
2016,08,04,07,34,1017.30
2016,08,04,07,36,1017.30
2016,08,04,07,37,1017.30
2016,08,04,07,38,1017.30
2016,08,04,07,39,1017.30
2016,08,04,07,41,1017.30
2016,08,04,07,42,1017.30
2016,08,04,07,43,1017.30
2016,08,04,07,44,1017.30
2016,08,04,07,46,1017.30
2016,08,04,07,47,1017.20
2016,08,04,07,48,1017.20
2016,08,04,07,49,1017.20
2016,08,04,07,51,1017.20
2016,08,04,07,52,1017.20
2016,08,04,07,53,1017.20
2016,08,04,07,54,1017.30
2016,08,04,07,56,1017.30
2016,08,04,07,57,1017.30
2016,08,04,07,58,1017.30
2016,08,04,07,59,1017.30
2016,08,04,08,01,1017.20
2016,08,04,08,02,1017.20
2016,08,04,08,03,1017.20
2016,08,04,08,04,1017.10
2016,08,04,08,06,1017.10
2016,08,04,08,07,1017.20
2016,08,04,08,08,1017.20
2016,08,04,08,09,1017.20
2016,08,04,08,11,1017.20
2016,08,04,08,12,1017.10
2016,08,04,08,13,1017.10
2016,08,04,08,14,1017.10
2016,08,04,08,15,1017.10
2016,08,04,08,16,1017.10
2016,08,04,08,17,1017.00
2016,08,04,08,18,1017.00
2016,08,04,08,19,1017.00
2016,08,04,08,20,1017.00
2016,08,04,08,21,1017.00
2016,08,04,08,22,1016.90
2016,08,04,08,23,1016.90
2016,08,04,08,24,1016.90
2016,08,04,08,25,1016.90
2016,08,04,08,26,1016.90
2016,08,04,08,27,1016.90
2016,08,04,08,28,1016.90
2016,08,04,08,29,1016.90
2016,08,04,08,30,1016.90
2016,08,04,08,31,1016.90
2016,08,04,08,32,1016.90
2016,08,04,08,33,1016.90
2016,08,04,08,34,1017.00
2016,08,04,08,35,1017.00
2016,08,04,08,36,1017.00
2016,08,04,08,37,1017.00
2016,08,04,08,38,1017.00
2016,08,04,08,39,1017.00
2016,08,04,08,40,1016.90
2016,08,04,08,41,1016.90
2016,08,04,08,42,1016.90
2016,08,04,08,43,1016.90
2016,08,04,08,44,1016.90
2016,08,04,08,45,1016.90
2016,08,04,08,46,1016.90
2016,08,04,08,47,1016.90
2016,08,04,08,48,1016.90
2016,08,04,08,49,1016.90
2016,08,04,08,50,1016.90
2016,08,04,08,51,1016.90
2016,08,04,08,52,1016.90
2016,08,04,08,53,1016.90
2016,08,04,08,54,1016.90
2016,08,04,08,55,1016.90
2016,08,04,08,56,1016.90
2016,08,04,08,57,1016.90
2016,08,04,08,58,1016.90
2016,08,04,08,59,1016.90
2016,08,04,09,00,1016.90
2016,08,04,09,01,1016.90
2016,08,04,09,02,1016.90
2016,08,04,09,03,1016.90
2016,08,04,09,04,1016.90
2016,08,04,09,05,1016.90
2016,08,04,09,06,1016.90
2016,08,04,09,07,1016.90
2016,08,04,09,08,1016.90
2016,08,04,09,09,1016.90
2016,08,04,09,10,1016.90
2016,08,04,09,11,1016.90
2016,08,04,09,12,1016.90
2016,08,04,09,13,1016.90
2016,08,04,09,14,1016.90
2016,08,04,09,15,1016.90
2016,08,04,09,16,1016.90
2016,08,04,09,17,1016.90
2016,08,04,09,18,1016.90
2016,08,04,09,19,1016.90
2016,08,04,09,20,1016.90
2016,08,04,09,21,1016.90
2016,08,04,09,22,1016.90
2016,08,04,09,23,1016.90
2016,08,04,09,24,1016.90
2016,08,04,09,25,1016.90
2016,08,04,09,26,1016.90
2016,08,04,09,27,1016.90
2016,08,04,09,28,1016.90
2016,08,04,09,29,1016.90
2016,08,04,09,30,1016.90
2016,08,04,09,31,1016.80
2016,08,04,09,32,1016.80
2016,08,04,09,33,1016.80
2016,08,04,09,34,1016.80
2016,08,04,09,35,1016.80
2016,08,04,09,36,1016.80
2016,08,04,09,37,1016.80
2016,08,04,09,38,1016.80
2016,08,04,09,39,1016.80
2016,08,04,09,40,1016.80
2016,08,04,09,41,1016.80
2016,08,04,09,42,1016.80
2016,08,04,09,43,1016.80
2016,08,04,09,44,1016.80
2016,08,04,09,45,1016.80
2016,08,04,09,46,1016.80
2016,08,04,09,47,1016.80
2016,08,04,09,48,1016.80
2016,08,04,09,49,1016.80
2016,08,04,09,50,1016.80
2016,08,04,09,51,1016.80
2016,08,04,09,52,1016.80
2016,08,04,09,53,1016.80
2016,08,04,09,54,1016.70
2016,08,04,09,55,1016.70
2016,08,04,09,56,1016.70
2016,08,04,09,58,1016.70
2016,08,04,09,59,1016.60
2016,08,04,10,00,1016.70
2016,08,04,10,02,1016.70
2016,08,04,10,03,1016.70
2016,08,04,10,04,1016.60
2016,08,04,10,06,1016.60
2016,08,04,10,07,1016.60
2016,08,04,10,08,1016.60
2016,08,04,10,09,1016.60
2016,08,04,10,11,1016.60
2016,08,04,10,12,1016.50
2016,08,04,10,13,1016.50
2016,08,04,10,14,1016.50
2016,08,04,10,16,1016.50
2016,08,04,10,17,1016.50
2016,08,04,10,18,1016.50
2016,08,04,10,19,1016.50
2016,08,04,10,21,1016.40
2016,08,04,10,22,1016.40
2016,08,04,10,23,1016.40
2016,08,04,10,24,1016.40
2016,08,04,10,26,1016.40
2016,08,04,10,27,1016.40
2016,08,04,10,28,1016.40
2016,08,04,10,29,1016.30
2016,08,04,10,31,1016.30
2016,08,04,10,32,1016.40
2016,08,04,10,33,1016.40
2016,08,04,10,34,1016.40
2016,08,04,10,36,1016.40
2016,08,04,10,37,1016.40
2016,08,04,10,38,1016.40
2016,08,04,10,39,1016.40
2016,08,04,10,41,1016.40
2016,08,04,10,42,1016.40
2016,08,04,10,43,1016.40
2016,08,04,10,44,1016.40
2016,08,04,10,46,1016.40
2016,08,04,10,47,1016.40
2016,08,04,10,48,1016.40
2016,08,04,10,49,1016.40
2016,08,04,10,51,1016.30
2016,08,04,10,52,1016.30
2016,08,04,10,53,1016.30
2016,08,04,10,54,1016.30
2016,08,04,10,56,1016.30
2016,08,04,10,57,1016.30
2016,08,04,10,58,1016.30
2016,08,04,10,59,1016.30
2016,08,04,11,01,1016.30
2016,08,04,11,02,1016.30
2016,08,04,11,03,1016.30
2016,08,04,11,04,1016.30
2016,08,04,11,06,1016.30
2016,08,04,11,07,1016.30
2016,08,04,11,08,1016.30
2016,08,04,11,09,1016.30
2016,08,04,11,11,1016.30
2016,08,04,11,12,1016.30
2016,08,04,11,13,1016.30
2016,08,04,11,14,1016.30
2016,08,04,11,15,1016.30
2016,08,04,11,16,1016.30
2016,08,04,11,17,1016.30
2016,08,04,11,18,1016.30
2016,08,04,11,19,1016.30
2016,08,04,11,20,1016.30
2016,08,04,11,21,1016.30
2016,08,04,11,22,1016.30
2016,08,04,11,23,1016.30
2016,08,04,11,24,1016.30
2016,08,04,11,25,1016.30
2016,08,04,11,26,1016.20
2016,08,04,11,27,1016.20
2016,08,04,11,28,1016.20
2016,08,04,11,29,1016.20
2016,08,04,11,30,1016.20
2016,08,04,11,31,1016.10
2016,08,04,11,32,1016.10
2016,08,04,11,33,1016.10
2016,08,04,11,34,1016.10
2016,08,04,11,35,1016.10
2016,08,04,11,36,1016.10
2016,08,04,11,37,1016.00
2016,08,04,11,38,1016.00
2016,08,04,11,39,1016.00
2016,08,04,11,40,1016.00
2016,08,04,11,41,1016.00
2016,08,04,11,42,1016.00
2016,08,04,11,43,1015.90
2016,08,04,11,44,1015.90
2016,08,04,11,45,1015.90
2016,08,04,11,46,1015.90
2016,08,04,11,47,1015.90
2016,08,04,11,48,1015.90
2016,08,04,11,49,1015.90
2016,08,04,11,50,1015.90
2016,08,04,11,51,1015.90
2016,08,04,11,52,1015.90
2016,08,04,11,53,1015.90
2016,08,04,11,54,1015.90
2016,08,04,11,55,1015.90
2016,08,04,11,56,1015.90
2016,08,04,11,57,1015.90
2016,08,04,11,58,1015.90
2016,08,04,11,59,1015.90
2016,08,04,12,00,1015.90
2016,08,04,12,01,1015.90
2016,08,04,12,02,1015.80
2016,08,04,12,03,1015.80
2016,08,04,12,04,1015.80
2016,08,04,12,05,1015.80
2016,08,04,12,06,1015.80
2016,08,04,12,07,1015.80
2016,08,04,12,08,1015.80
2016,08,04,12,09,1015.80
2016,08,04,12,10,1015.80
2016,08,04,12,11,1015.80
2016,08,04,12,12,1015.80
2016,08,04,12,13,1015.80
2016,08,04,12,14,1015.80
2016,08,04,12,16,1015.70
2016,08,04,12,17,1015.70
2016,08,04,12,18,1015.70
2016,08,04,12,19,1015.60
2016,08,04,12,20,1015.60
2016,08,04,12,21,1015.60
2016,08,04,12,22,1015.50
2016,08,04,12,23,1015.50
2016,08,04,12,24,1015.50
2016,08,04,12,25,1015.40
2016,08,04,12,26,1015.40
2016,08,04,12,27,1015.40
2016,08,04,12,28,1015.40
2016,08,04,12,29,1015.40
2016,08,04,12,30,1015.40
2016,08,04,12,31,1015.40
2016,08,04,12,32,1015.40
2016,08,04,12,33,1015.30
2016,08,04,12,34,1015.30
2016,08,04,12,35,1015.30
2016,08,04,12,36,1015.30
2016,08,04,12,37,1015.30
2016,08,04,12,38,1015.30
2016,08,04,12,39,1015.30
2016,08,04,12,40,1015.30
2016,08,04,12,41,1015.30
2016,08,04,12,42,1015.30
2016,08,04,12,43,1015.30
2016,08,04,12,44,1015.30
2016,08,04,12,46,1015.30
2016,08,04,12,47,1015.30
2016,08,04,12,48,1015.30
2016,08,04,12,49,1015.30
2016,08,04,12,51,1015.30
2016,08,04,12,52,1015.30
2016,08,04,12,53,1015.30
2016,08,04,12,54,1015.30
2016,08,04,12,56,1015.30
2016,08,04,12,57,1015.20
2016,08,04,12,58,1015.20
2016,08,04,12,59,1015.20
2016,08,04,13,01,1015.20
2016,08,04,13,02,1015.20
2016,08,04,13,03,1015.20
2016,08,04,13,04,1015.10
2016,08,04,13,06,1015.10
2016,08,04,13,07,1015.10
2016,08,04,13,08,1015.10
2016,08,04,13,09,1015.00
2016,08,04,13,11,1015.00
2016,08,04,13,12,1015.00
2016,08,04,13,13,1015.00
2016,08,04,13,14,1015.00
2016,08,04,13,16,1015.00
2016,08,04,13,17,1015.00
2016,08,04,13,18,1015.00
2016,08,04,13,19,1015.00
2016,08,04,13,21,1015.00
2016,08,04,13,22,1015.00
2016,08,04,13,23,1015.00
2016,08,04,13,24,1015.00
2016,08,04,13,26,1015.00
2016,08,04,13,27,1015.00
2016,08,04,13,28,1015.00
2016,08,04,13,29,1015.00
2016,08,04,13,31,1015.00
2016,08,04,13,32,1015.00
2016,08,04,13,33,1014.90
2016,08,04,13,34,1014.80
2016,08,04,13,36,1014.80
2016,08,04,13,37,1014.80
2016,08,04,13,38,1014.80
2016,08,04,13,39,1014.80
2016,08,04,13,41,1014.80
2016,08,04,13,42,1014.80
2016,08,04,13,43,1014.80
2016,08,04,13,44,1014.70
2016,08,04,13,46,1014.70
2016,08,04,13,47,1014.70
2016,08,04,13,48,1014.70
2016,08,04,13,49,1014.70
2016,08,04,13,51,1014.70
2016,08,04,13,52,1014.70
2016,08,04,13,53,1014.70
2016,08,04,13,54,1014.70
2016,08,04,13,56,1014.70
2016,08,04,13,57,1014.70
2016,08,04,13,58,1014.60
2016,08,04,13,59,1014.60
2016,08,04,14,00,1014.60
2016,08,04,14,01,1014.60
2016,08,04,14,02,1014.60
2016,08,04,14,03,1014.50
2016,08,04,14,04,1014.50
2016,08,04,14,06,1014.50
2016,08,04,14,07,1014.50
2016,08,04,14,08,1014.50
2016,08,04,14,09,1014.50
2016,08,04,14,10,1014.50
2016,08,04,14,11,1014.40
2016,08,04,14,12,1014.40
2016,08,04,14,13,1014.40
2016,08,04,14,14,1014.40
2016,08,04,14,15,1014.30
2016,08,04,14,16,1014.30
2016,08,04,14,17,1014.30
2016,08,04,14,18,1014.30
2016,08,04,14,19,1014.30
2016,08,04,14,20,1014.30
2016,08,04,14,21,1014.30
2016,08,04,14,22,1014.30
2016,08,04,14,23,1014.30
2016,08,04,14,24,1014.30
2016,08,04,14,25,1014.30
2016,08,04,14,26,1014.30
2016,08,04,14,27,1014.30
2016,08,04,14,28,1014.30
2016,08,04,14,29,1014.30
2016,08,04,14,30,1014.30
2016,08,04,14,31,1014.30
2016,08,04,14,32,1014.30
2016,08,04,14,33,1014.20
2016,08,04,14,34,1014.20
2016,08,04,14,35,1014.20
2016,08,04,14,36,1014.20
2016,08,04,14,37,1014.20
2016,08,04,14,38,1014.20
2016,08,04,14,39,1014.20
2016,08,04,14,40,1014.20
2016,08,04,14,41,1014.20
2016,08,04,14,42,1014.20
2016,08,04,14,43,1014.20
2016,08,04,14,44,1014.20
2016,08,04,14,45,1014.20
2016,08,04,14,46,1014.20
2016,08,04,14,47,1014.10
2016,08,04,14,48,1014.10
2016,08,04,14,49,1014.10
2016,08,04,14,50,1014.10
2016,08,04,14,51,1014.10
2016,08,04,14,52,1014.00
2016,08,04,14,53,1014.00
2016,08,04,14,54,1014.00
2016,08,04,14,55,1014.00
2016,08,04,14,56,1013.90
2016,08,04,14,57,1013.90
2016,08,04,14,58,1013.80
2016,08,04,14,59,1013.80
2016,08,04,15,00,1013.90
2016,08,04,15,01,1013.80
2016,08,04,15,02,1013.80
2016,08,04,15,03,1013.80
2016,08,04,15,04,1013.80
2016,08,04,15,05,1013.80
2016,08,04,15,06,1013.80
2016,08,04,15,07,1013.80
2016,08,04,15,08,1013.80
2016,08,04,15,09,1013.70
2016,08,04,15,10,1013.70
2016,08,04,15,11,1013.70
2016,08,04,15,12,1013.70
2016,08,04,15,13,1013.70
2016,08,04,15,14,1013.70
2016,08,04,15,15,1013.70
2016,08,04,15,16,1013.70
2016,08,04,15,17,1013.70
2016,08,04,15,18,1013.70
2016,08,04,15,19,1013.70
2016,08,04,15,20,1013.70
2016,08,04,15,21,1013.70
2016,08,04,15,22,1013.70
2016,08,04,15,23,1013.70
2016,08,04,15,24,1013.70
2016,08,04,15,25,1013.70
2016,08,04,15,26,1013.60
2016,08,04,15,27,1013.70
2016,08,04,15,28,1013.60
2016,08,04,15,29,1013.60
2016,08,04,15,30,1013.50
2016,08,04,15,31,1013.50
2016,08,04,15,32,1013.50
2016,08,04,15,33,1013.50
2016,08,04,15,34,1013.40
2016,08,04,15,35,1013.40
2016,08,04,15,36,1013.40
2016,08,04,15,37,1013.40
2016,08,04,15,38,1013.30
2016,08,04,15,39,1013.30
2016,08,04,15,40,1013.30
2016,08,04,15,42,1013.30
2016,08,04,15,43,1013.20
2016,08,04,15,44,1013.20
2016,08,04,15,46,1013.20
2016,08,04,15,47,1013.20
2016,08,04,15,48,1013.20
2016,08,04,15,49,1013.20
2016,08,04,15,51,1013.20
2016,08,04,15,52,1013.20
2016,08,04,15,53,1013.20
2016,08,04,15,54,1013.20
2016,08,04,15,56,1013.10
2016,08,04,15,57,1013.10
2016,08,04,15,58,1013.10
2016,08,04,15,59,1013.10
2016,08,04,16,01,1013.10
2016,08,04,16,02,1013.10
2016,08,04,16,03,1013.10
2016,08,04,16,04,1013.10
2016,08,04,16,06,1013.10
2016,08,04,16,07,1013.00
2016,08,04,16,08,1013.00
2016,08,04,16,09,1013.00
2016,08,04,16,11,1012.90
2016,08,04,16,12,1012.90
2016,08,04,16,13,1012.90
2016,08,04,16,14,1012.90
2016,08,04,16,16,1012.80
2016,08,04,16,17,1012.90
2016,08,04,16,18,1012.80
2016,08,04,16,19,1012.80
2016,08,04,16,21,1012.70
2016,08,04,16,22,1012.70
2016,08,04,16,23,1012.70
2016,08,04,16,24,1012.70
2016,08,04,16,26,1012.70
2016,08,04,16,27,1012.70
2016,08,04,16,28,1012.70
2016,08,04,16,29,1012.70
2016,08,04,16,31,1012.70
2016,08,04,16,32,1012.70
2016,08,04,16,33,1012.70
2016,08,04,16,34,1012.60
2016,08,04,16,36,1012.60
2016,08,04,16,37,1012.60
2016,08,04,16,38,1012.60
2016,08,04,16,39,1012.60
2016,08,04,16,41,1012.60
2016,08,04,16,42,1012.60
2016,08,04,16,43,1012.60
2016,08,04,16,44,1012.60
2016,08,04,16,46,1012.60
2016,08,04,16,47,1012.60
2016,08,04,16,48,1012.50
2016,08,04,16,49,1012.50
2016,08,04,16,51,1012.40
2016,08,04,16,52,1012.40
2016,08,04,16,53,1012.30
2016,08,04,16,54,1012.30
2016,08,04,16,56,1012.30
2016,08,04,16,57,1012.20
2016,08,04,16,58,1012.20
2016,08,04,16,59,1012.20
2016,08,04,17,00,1012.20
2016,08,04,17,01,1012.20
2016,08,04,17,02,1012.20
2016,08,04,17,03,1012.20
2016,08,04,17,04,1012.20
2016,08,04,17,06,1012.20
2016,08,04,17,07,1012.20
2016,08,04,17,08,1012.20
2016,08,04,17,09,1012.20
2016,08,04,17,10,1012.10
2016,08,04,17,11,1012.10
2016,08,04,17,12,1012.10
2016,08,04,17,13,1012.10
2016,08,04,17,14,1012.10
2016,08,04,17,15,1012.10
2016,08,04,17,16,1012.10
2016,08,04,17,17,1012.10
2016,08,04,17,18,1012.10
2016,08,04,17,19,1012.10
2016,08,04,17,20,1012.10
2016,08,04,17,21,1012.10
2016,08,04,17,22,1012.10
2016,08,04,17,23,1012.10
2016,08,04,17,24,1012.10
2016,08,04,17,25,1012.00
2016,08,04,17,26,1012.00
2016,08,04,17,27,1012.00
2016,08,04,17,28,1012.00
2016,08,04,17,29,1012.00
2016,08,04,17,30,1012.00
2016,08,04,17,31,1011.90
2016,08,04,17,32,1011.90
2016,08,04,17,33,1011.90
2016,08,04,17,34,1011.90
2016,08,04,17,35,1011.80
2016,08,04,17,36,1011.80
2016,08,04,17,37,1011.80
2016,08,04,17,38,1011.80
2016,08,04,17,39,1011.80
2016,08,04,17,40,1011.80
2016,08,04,17,41,1011.80
2016,08,04,17,42,1011.80
2016,08,04,17,43,1011.80
2016,08,04,17,44,1011.80
2016,08,04,17,45,1011.80
2016,08,04,17,46,1011.80
2016,08,04,17,47,1011.80
2016,08,04,17,48,1011.80
2016,08,04,17,49,1011.80
2016,08,04,17,50,1011.80
2016,08,04,17,51,1011.80
2016,08,04,17,52,1011.70
2016,08,04,17,53,1011.70
2016,08,04,17,54,1011.70
2016,08,04,17,55,1011.70
2016,08,04,17,56,1011.70
2016,08,04,17,57,1011.70
2016,08,04,17,58,1011.70
2016,08,04,17,59,1011.70
2016,08,04,18,00,1011.70
2016,08,04,18,01,1011.70
2016,08,04,18,02,1011.70
2016,08,04,18,03,1011.70
2016,08,04,18,04,1011.70
2016,08,04,18,05,1011.70
2016,08,04,18,06,1011.70
2016,08,04,18,07,1011.70
2016,08,04,18,08,1011.70
2016,08,04,18,09,1011.70
2016,08,04,18,10,1011.70
2016,08,04,18,11,1011.70
2016,08,04,18,12,1011.70
2016,08,04,18,13,1011.70
2016,08,04,18,14,1011.70
2016,08,04,18,15,1011.70
2016,08,04,18,16,1011.70
2016,08,04,18,17,1011.60
2016,08,04,18,18,1011.60
2016,08,04,18,19,1011.60
2016,08,04,18,20,1011.60
2016,08,04,18,21,1011.60
2016,08,04,18,22,1011.60
2016,08,04,18,24,1011.60
2016,08,04,18,26,1011.60
2016,08,04,18,27,1011.60
2016,08,04,18,28,1011.60
2016,08,04,18,29,1011.60
2016,08,04,18,31,1011.50
2016,08,04,18,32,1011.40
2016,08,04,18,33,1011.40
2016,08,04,18,34,1011.40
2016,08,04,18,36,1011.30
2016,08,04,18,37,1011.30
2016,08,04,18,38,1011.30
2016,08,04,18,39,1011.30
2016,08,04,18,41,1011.20
2016,08,04,18,42,1011.20
2016,08,04,18,43,1011.20
2016,08,04,18,44,1011.20
2016,08,04,18,46,1011.20
2016,08,04,18,47,1011.10
2016,08,04,18,48,1011.10
2016,08,04,18,49,1011.10
2016,08,04,18,51,1011.10
2016,08,04,18,52,1011.10
2016,08,04,18,53,1011.10
2016,08,04,18,54,1011.10
2016,08,04,18,56,1011.10
2016,08,04,18,57,1011.10
2016,08,04,18,58,1011.10
2016,08,04,18,59,1011.10
2016,08,04,19,01,1011.10
2016,08,04,19,02,1011.10
2016,08,04,19,03,1011.10
2016,08,04,19,04,1011.10
2016,08,04,19,06,1011.00
2016,08,04,19,07,1011.00
2016,08,04,19,08,1011.00
2016,08,04,19,09,1011.00
2016,08,04,19,11,1011.00
2016,08,04,19,12,1010.90
2016,08,04,19,13,1010.90
2016,08,04,19,14,1010.90
2016,08,04,19,16,1010.80
2016,08,04,19,17,1010.80
2016,08,04,19,18,1010.80
2016,08,04,19,19,1010.80
2016,08,04,19,21,1010.70
2016,08,04,19,22,1010.70
2016,08,04,19,23,1010.70
2016,08,04,19,24,1010.70
2016,08,04,19,26,1010.70
2016,08,04,19,27,1010.70
2016,08,04,19,28,1010.70
2016,08,04,19,29,1010.70
2016,08,04,19,31,1010.70
2016,08,04,19,32,1010.70
2016,08,04,19,33,1010.70
2016,08,04,19,34,1010.70
2016,08,04,19,36,1010.70
2016,08,04,19,37,1010.60
2016,08,04,19,38,1010.60
2016,08,04,19,39,1010.60
2016,08,04,19,40,1010.60
2016,08,04,19,41,1010.60
2016,08,04,19,42,1010.60
2016,08,04,19,43,1010.60
2016,08,04,19,44,1010.60
2016,08,04,19,45,1010.60
2016,08,04,19,46,1010.60
2016,08,04,19,47,1010.60
2016,08,04,19,48,1010.60
2016,08,04,19,49,1010.60
2016,08,04,19,50,1010.60
2016,08,04,19,51,1010.60
2016,08,04,19,52,1010.60
2016,08,04,19,53,1010.60
2016,08,04,19,54,1010.60
2016,08,04,19,55,1010.60
2016,08,04,19,56,1010.60
2016,08,04,19,57,1010.60
2016,08,04,19,58,1010.60
2016,08,04,19,59,1010.60
2016,08,04,20,00,1010.60
2016,08,04,20,01,1010.60
2016,08,04,20,02,1010.60
2016,08,04,20,03,1010.50
2016,08,04,20,04,1010.50
2016,08,04,20,05,1010.50
2016,08,04,20,06,1010.50
2016,08,04,20,07,1010.50
2016,08,04,20,08,1010.50
2016,08,04,20,09,1010.50
2016,08,04,20,10,1010.50
2016,08,04,20,11,1010.50
2016,08,04,20,12,1010.50
2016,08,04,20,13,1010.50
2016,08,04,20,14,1010.40
2016,08,04,20,15,1010.40
2016,08,04,20,16,1010.40
2016,08,04,20,17,1010.40
2016,08,04,20,18,1010.40
2016,08,04,20,19,1010.40
2016,08,04,20,20,1010.40
2016,08,04,20,21,1010.40
2016,08,04,20,22,1010.40
2016,08,04,20,23,1010.40
2016,08,04,20,24,1010.40
2016,08,04,20,25,1010.40
2016,08,04,20,26,1010.30
2016,08,04,20,27,1010.30
2016,08,04,20,28,1010.30
2016,08,04,20,29,1010.30
2016,08,04,20,30,1010.30
2016,08,04,20,31,1010.30
2016,08,04,20,32,1010.30
2016,08,04,20,33,1010.30
2016,08,04,20,34,1010.30
2016,08,04,20,35,1010.30
2016,08,04,20,36,1010.30
2016,08,04,20,37,1010.30
2016,08,04,20,38,1010.30
2016,08,04,20,39,1010.30
2016,08,04,20,40,1010.30
2016,08,04,20,41,1010.30
2016,08,04,20,42,1010.30
2016,08,04,20,43,1010.30
2016,08,04,20,44,1010.30
2016,08,04,21,21,1010.10
2016,08,04,21,22,1010.10
2016,08,04,21,23,1010.10
2016,08,04,21,24,1010.10
2016,08,04,21,26,1010.10
2016,08,04,21,27,1010.10
2016,08,04,21,28,1010.10
2016,08,04,21,29,1010.10
2016,08,04,21,31,1010.10
2016,08,04,21,32,1010.10
2016,08,04,21,33,1010.10
2016,08,04,21,34,1010.10
2016,08,04,21,36,1010.10
2016,08,04,21,37,1010.10
2016,08,04,21,38,1010.10
2016,08,04,21,39,1010.10
2016,08,04,21,41,1010.10
2016,08,04,21,42,1010.10
2016,08,04,21,43,1010.10
2016,08,04,21,44,1010.10
2016,08,04,21,46,1010.10
2016,08,04,21,47,1010.10
2016,08,04,21,48,1010.10
2016,08,04,21,49,1010.10
2016,08,04,21,51,1010.00
2016,08,04,21,52,1010.00
2016,08,04,21,53,1010.00
2016,08,04,21,54,1010.00
2016,08,04,21,56,1010.00
2016,08,04,21,57,1010.00
2016,08,04,21,58,1010.00
2016,08,04,21,59,1010.00
2016,08,04,22,01,1010.00
2016,08,04,22,02,1010.00
2016,08,04,22,03,1010.00
2016,08,04,22,04,1010.00
2016,08,04,22,06,1009.90
2016,08,04,22,07,1009.90
2016,08,04,22,08,1009.90
2016,08,04,22,09,1009.90
2016,08,04,22,11,1009.90
2016,08,04,22,12,1009.90
2016,08,04,22,13,1009.90
2016,08,04,22,14,1009.90
2016,08,04,22,15,1009.90
2016,08,04,22,16,1009.90
2016,08,04,22,17,1009.90
2016,08,04,22,18,1009.90
2016,08,04,22,19,1009.90
2016,08,04,22,20,1009.80
2016,08,04,22,21,1009.80
2016,08,04,22,22,1009.80
2016,08,04,22,23,1009.80
2016,08,04,22,24,1009.80
2016,08,04,22,25,1009.80
2016,08,04,22,26,1009.80
2016,08,04,22,27,1009.80
2016,08,04,22,28,1009.70
2016,08,04,22,29,1009.70
2016,08,04,22,30,1009.70
2016,08,04,22,31,1009.70
2016,08,04,22,32,1009.70
2016,08,04,22,33,1009.70
2016,08,04,22,34,1009.70
2016,08,04,22,35,1009.70
2016,08,04,22,36,1009.70
2016,08,04,22,37,1009.70
2016,08,04,22,38,1009.70
2016,08,04,22,39,1009.70
2016,08,04,22,40,1009.60
2016,08,04,22,41,1009.60
2016,08,04,22,42,1009.60
2016,08,04,22,43,1009.70
2016,08,04,22,44,1009.70
2016,08,04,22,45,1009.70
2016,08,04,22,46,1009.70
2016,08,04,22,47,1009.70
2016,08,04,22,48,1009.70
2016,08,04,22,49,1009.70
2016,08,04,22,50,1009.70
2016,08,04,22,51,1009.70
2016,08,04,22,52,1009.70